Weather in Rekonstruktsiya

Russia / Volgograd Oblast     50°15′16″N   43°04′31″E
temp.,
°C
wind,
m/s
gust,
m/s
humid.,
%
clouds,
%
prec.,
mm/h
press.,
hPa
HPBL,
m
3 august, tue
tue300:00+27sw333127 0.0 101026
03:00+26sw233869 0.0 101044
06:00+25s35406 0.0 101093
09:00+32wsw34285 0.0 1010545
12:00+37wsw581994 0.0 10104223
15:00+35ssw362350 0.0 10091993
18:00+31nw8839100 0.2 10101288
21:00+22nnw71277100 1.0 1011349
4 august, wed
wed400:00+20ssw6984100 1.8 1014211
03:00+20sw1189100 4.3 101367
06:00+20wnw348599 0.1 1013153
09:00+25wnw4563100 0.1 1013802
12:00+28nw554446 0.0 10131758
15:00+30wnw553374 0.0 10132913
18:00+26n77496 0.0 1014763
21:00+22n6105834 0.0 1016334
5 august, thu
thu500:00+20n4957100 0.0 1016163
03:00+19n3759100 0.0 1017127
06:00+19n365873 0.0 1017170
09:00+25nne453999 0.0 1017738
12:00+28nne433180 0.0 10172174
15:00+29nne332659 0.0 10162444
18:00+28ne4431100 0.0 1016986
21:00+22ene464488 0.0 101694
6 august, fri
fri600:00+20e49465 0.0 1016162
03:00+18e48495 0.0 1016129
06:00+19e49490 0.0 1016185
09:00+27se453419 0.0 1015661
12:00+31se33255 0.0 10142283
15:00+33se44215 0.0 10122773
18:00+32ese56245 0.0 1011890
21:00+25ese512335 0.0 1012211
7 august, sat
sat700:00+23ese61434100 0.0 1012289
03:00+22ese61533100 0.0 1012329
06:00+22ese5143398 0.0 1012356
09:00+29se71024100 0.0 1013665
12:00+33se7719100 0.0 10121973
15:00+34ese6618100 0.0 10112292
18:00+32ese5819100 0.0 1011662
21:00+26ese4625100 0.0 101296